Desert Lake Discharge




Date Panel Temperature (degC) Canal Conductivity (mS/m) Canal Flow (cfs) Canal Height (ft) Water Temperature (degC) Air Temperature (degF) Water Balance (pH) Canal Conductivity in micro-Siemens (┬ÁS/cm)
05/01/2017 3.51 116.40 3,506.00
05/02/2017 3.51 116.40 3,510.00
05/03/2017 3.50 116.50 3,501.00
05/04/2017 3.50 116.40 3,501.00
05/05/2017 3.50 116.30 3,501.00
05/06/2017 3.50 116.60 3,501.00
05/07/2017 3.50 116.50 3,501.00
05/08/2017 3.51 116.60 3,507.00
05/09/2017 3.50 116.70 3,501.00
05/10/2017 3.51 116.70 3,512.00
05/11/2017 3.50 116.60 3,501.00
05/12/2017 3.50 116.50 3,501.00
05/13/2017 3.51 116.60 3,506.00
05/14/2017 3.51 116.90 3,506.00
05/15/2017 3.51 116.80 3,506.00
05/16/2017 3.52 117.00 3,517.00
05/17/2017 3.52 117.10 3,522.00
05/18/2017 3.52 117.20 3,522.00
05/19/2017 3.52 117.00 3,521.00
05/20/2017 3.52 117.10 3,517.00
05/21/2017 3.52 116.90 3,517.00
05/22/2017 3.51 116.90 3,512.00
05/23/2017 3.51 116.80 3,512.00
05/24/2017 0.00 1,728.00
05/25/2017 3.52 116.80 3,517.00
05/26/2017 3.51 116.80 3,512.00
05/27/2017 3.51 116.80 3,512.00
05/28/2017 3.51 116.80 3,512.00
05/29/2017 3.51 116.80 3,512.00
05/30/2017 3.51 116.80 3,512.00
05/31/2017 3.51 116.80 3,512.00
Average 168.71
Maximum 1,728.00
Minimum 116.30
Total Volume (AF) 10,371.29